Time,TemperatureF,DewpointF,PressureIn,WindDirection,WindDirectionDegrees,WindSpeedMPH,WindSpeedGustMPH,Humidity,HourlyPrecipIn,Conditions,Clouds,dailyrainin,SolarRadiationWatts/m^2,SoftwareType,DateUTC
2013-02-21 00:01:00,17.6,14.7,30.18,ESE,121,11.0,13.0,88,0.00,,,0.00,0,Wunderground v.1.15,2013-02-21 06:01:00,
2013-02-21 00:06:00,17.6,14.7,30.18,East,93,15.0,16.0,88,0.00,,,0.00,0,Wunderground v.1.15,2013-02-21 06:06:00,
2013-02-21 00:11:00,17.7,14.8,30.18,East,92,11.0,13.0,88,0.00,,,0.00,0,Wunderground v.1.15,2013-02-21 06:11:00,
2013-02-21 00:16:00,17.7,14.5,30.18,East,94,11.0,13.0,87,0.00,,,0.00,0,Wunderground v.1.15,2013-02-21 06:16:00,
2013-02-21 00:21:00,17.7,14.5,30.18,ESE,103,15.0,15.0,87,0.00,,,0.00,0,Wunderground v.1.15,2013-02-21 06:21:00,
2013-02-21 00:27:00,17.7,14.5,30.18,East,90,13.0,16.0,87,0.00,,,0.00,0,Wunderground v.1.15,2013-02-21 06:27:00,
2013-02-21 00:32:00,17.7,14.5,30.17,ESE,106,13.0,16.0,87,0.00,,,0.00,0,Wunderground v.1.15,2013-02-21 06:32:00,
2013-02-21 00:37:00,17.8,14.3,30.17,East,88,9.0,16.0,86,0.00,,,0.00,0,Wunderground v.1.15,2013-02-21 06:37:00,
2013-02-21 00:42:00,17.9,14.4,30.16,ENE,76,11.0,13.0,86,0.00,,,0.00,0,Wunderground v.1.15,2013-02-21 06:42:00,
2013-02-21 00:48:00,18.0,14.3,30.17,SE,132,7.0,16.0,85,0.00,,,0.00,0,Wunderground v.1.15,2013-02-21 06:48:00,
2013-02-21 00:53:00,18.1,14.1,30.18,SE,128,5.0,11.0,84,0.00,,,0.00,0,Wunderground v.1.15,2013-02-21 06:53:00,
2013-02-21 00:58:00,18.2,14.2,30.18,SE,136,12.0,12.0,84,0.00,,,0.00,0,Wunderground v.1.15,2013-02-21 06:58:00,
2013-02-21 01:03:00,18.2,13.9,30.18,SE,134,11.0,11.0,83,0.00,,,0.00,0,Wunderground v.1.15,2013-02-21 07:03:00,
2013-02-21 01:08:00,18.4,13.8,30.18,SE,131,10.0,11.0,82,0.00,,,0.00,0,Wunderground v.1.15,2013-02-21 07:08:00,
2013-02-21 01:13:00,18.5,13.9,30.18,ESE,107,9.0,9.0,82,0.00,,,0.00,0,Wunderground v.1.15,2013-02-21 07:13:00,
2013-02-21 01:18:00,18.6,13.7,30.18,ESE,112,7.0,9.0,81,0.00,,,0.00,0,Wunderground v.1.15,2013-02-21 07:18:00,
2013-02-21 01:23:00,18.7,13.6,30.17,East,99,9.0,12.0,80,0.00,,,0.00,0,Wunderground v.1.15,2013-02-21 07:23:00,
2013-02-21 01:28:00,18.8,13.7,30.17,East,101,14.0,14.0,80,0.00,,,0.00,0,Wunderground v.1.15,2013-02-21 07:28:00,
2013-02-21 01:34:00,18.8,13.4,30.17,East,98,13.0,18.0,79,0.00,,,0.00,0,Wunderground v.1.15,2013-02-21 07:34:00,
2013-02-21 01:39:00,18.8,13.4,30.17,ESE,106,11.0,18.0,79,0.00,,,0.00,0,Wunderground v.1.15,2013-02-21 07:39:00,
2013-02-21 01:45:00,18.8,13.4,30.16,East,86,9.0,14.0,79,0.00,,,0.00,0,Wunderground v.1.15,2013-02-21 07:45:00,
2013-02-21 01:50:00,18.8,13.4,30.16,East,87,13.0,13.0,79,0.00,,,0.00,0,Wunderground v.1.15,2013-02-21 07:50:00,
2013-02-21 01:55:00,18.8,13.4,30.15,East,82,11.0,15.0,79,0.00,,,0.00,0,Wunderground v.1.15,2013-02-21 07:55:00,
2013-02-21 02:00:00,18.7,13.3,30.15,East,90,11.0,12.0,79,0.00,,,0.00,0,Wunderground v.1.15,2013-02-21 08:00:00,
2013-02-21 02:05:00,18.7,13.3,30.14,East,88,18.0,18.0,79,0.00,,,0.00,0,Wunderground v.1.15,2013-02-21 08:05:00,
2013-02-21 02:10:00,18.7,13.0,30.13,East,88,11.0,13.0,78,0.00,,,0.00,0,Wunderground v.1.15,2013-02-21 08:10:00,
2013-02-21 02:15:00,18.6,12.9,30.13,East,88,7.0,16.0,78,0.00,,,0.00,0,Wunderground v.1.15,2013-02-21 08:15:00,
2013-02-21 02:20:00,18.5,12.8,30.13,ENE,66,13.0,14.0,78,0.00,,,0.00,0,Wunderground v.1.15,2013-02-21 08:20:00,
2013-02-21 02:25:00,18.4,12.7,30.13,East,84,11.0,17.0,78,0.00,,,0.00,0,Wunderground v.1.15,2013-02-21 08:25:00,
2013-02-21 02:30:00,18.4,12.4,30.12,East,81,11.0,15.0,77,0.00,,,0.00,0,Wunderground v.1.15,2013-02-21 08:30:00,
2013-02-21 02:35:00,18.3,12.3,30.12,East,86,14.0,18.0,77,0.00,,,0.00,0,Wunderground v.1.15,2013-02-21 08:35:00,
2013-02-21 02:40:00,18.2,12.2,30.11,East,90,8.0,11.0,77,0.00,,,0.00,0,Wunderground v.1.15,2013-02-21 08:40:00,
2013-02-21 02:45:00,18.2,12.2,30.12,ESE,107,9.0,15.0,77,0.00,,,0.00,0,Wunderground v.1.15,2013-02-21 08:45:00,
2013-02-21 02:50:00,18.2,12.2,30.13,ESE,121,10.0,11.0,77,0.00,,,0.00,0,Wunderground v.1.15,2013-02-21 08:50:00,
2013-02-21 02:55:00,18.3,12.3,30.13,SE,128,6.0,11.0,77,0.00,,,0.00,0,Wunderground v.1.15,2013-02-21 08:55:00,
2013-02-21 03:00:00,18.4,12.4,30.13,ESE,109,8.0,8.0,77,0.00,,,0.00,0,Wunderground v.1.15,2013-02-21 09:00:00,
2013-02-21 03:05:00,18.3,12.0,30.13,SE,124,6.0,16.0,76,0.00,,,0.00,0,Wunderground v.1.15,2013-02-21 09:05:00,
2013-02-21 03:10:00,18.3,12.0,30.13,ESE,108,13.0,14.0,76,0.00,,,0.00,0,Wunderground v.1.15,2013-02-21 09:10:00,
2013-02-21 03:15:00,18.2,11.9,30.12,East,94,7.0,15.0,76,0.00,,,0.00,0,Wunderground v.1.15,2013-02-21 09:15:00,
2013-02-21 03:20:00,18.2,11.9,30.11,East,97,8.0,12.0,76,0.00,,,0.00,0,Wunderground v.1.15,2013-02-21 09:20:00,
2013-02-21 03:25:00,18.2,11.9,30.11,East,87,11.0,13.0,76,0.00,,,0.00,0,Wunderground v.1.15,2013-02-21 09:25:00,
2013-02-21 03:30:00,18.2,11.9,30.11,East,99,7.0,10.0,76,0.00,,,0.00,0,Wunderground v.1.15,2013-02-21 09:30:00,
2013-02-21 03:35:00,18.1,11.8,30.10,East,86,17.0,18.0,76,0.00,,,0.00,0,Wunderground v.1.15,2013-02-21 09:35:00,
2013-02-21 03:40:00,18.1,11.8,30.09,ENE,76,14.0,15.0,76,0.00,,,0.00,0,Wunderground v.1.15,2013-02-21 09:40:00,
2013-02-21 03:45:00,18.0,11.7,30.08,ENE,74,13.0,15.0,76,0.00,,,0.00,0,Wunderground v.1.15,2013-02-21 09:45:00,
2013-02-21 03:50:00,18.0,11.7,30.08,East,82,9.0,11.0,76,0.00,,,0.00,0,Wunderground v.1.15,2013-02-21 09:50:00,
2013-02-21 03:55:00,18.0,11.7,30.08,East,96,14.0,18.0,76,0.00,,,0.00,0,Wunderground v.1.15,2013-02-21 09:55:00,
2013-02-21 04:00:00,18.1,11.8,30.09,ENE,76,13.0,16.0,76,0.00,,,0.00,0,Wunderground v.1.15,2013-02-21 10:00:00,
2013-02-21 04:05:00,18.1,11.8,30.09,East,87,9.0,16.0,76,0.00,,,0.00,0,Wunderground v.1.15,2013-02-21 10:05:00,
2013-02-21 04:10:00,18.0,11.7,30.09,ENE,71,11.0,16.0,76,0.00,,,0.00,0,Wunderground v.1.15,2013-02-21 10:10:00,
2013-02-21 04:15:00,18.0,11.4,30.09,ENE,68,9.0,16.0,75,0.00,,,0.00,0,Wunderground v.1.15,2013-02-21 10:15:00,
2013-02-21 04:20:00,18.0,11.4,30.08,ENE,72,11.0,15.0,75,0.00,,,0.00,0,Wunderground v.1.15,2013-02-21 10:20:00,
2013-02-21 04:25:00,17.9,11.0,30.08,ENE,78,14.0,18.0,74,0.00,,,0.00,0,Wunderground v.1.15,2013-02-21 10:25:00,
2013-02-21 04:30:00,17.9,11.0,30.08,East,80,10.0,15.0,74,0.00,,,0.00,0,Wunderground v.1.15,2013-02-21 10:30:00,
2013-02-21 04:35:00,17.9,11.0,30.08,East,80,9.0,17.0,74,0.00,,,0.00,0,Wunderground v.1.15,2013-02-21 10:35:00,
2013-02-21 04:40:00,18.0,11.1,30.08,ENE,69,4.0,9.0,74,0.00,,,0.00,0,Wunderground v.1.15,2013-02-21 10:40:00,
2013-02-21 04:45:00,18.0,11.4,30.08,ENE,71,9.0,15.0,75,0.00,,,0.00,0,Wunderground v.1.15,2013-02-21 10:45:00,
2013-02-21 04:50:00,17.9,11.0,30.08,East,90,16.0,16.0,74,0.00,,,0.00,0,Wunderground v.1.15,2013-02-21 10:50:00,
2013-02-21 04:55:00,17.8,10.9,30.08,ENE,72,10.0,16.0,74,0.00,,,0.00,0,Wunderground v.1.15,2013-02-21 10:55:00,
2013-02-21 05:00:00,17.8,10.9,30.09,East,94,9.0,11.0,74,0.00,,,0.00,0,Wunderground v.1.15,2013-02-21 11:00:00,
2013-02-21 05:05:00,17.7,10.5,30.10,ENE,72,10.0,16.0,73,0.00,,,0.00,0,Wunderground v.1.15,2013-02-21 11:05:00,
2013-02-21 05:10:00,17.7,10.8,30.10,ENE,77,8.0,11.0,74,0.00,,,0.00,0,Wunderground v.1.15,2013-02-21 11:10:00,
2013-02-21 05:15:00,17.7,10.8,30.09,ENE,69,7.0,14.0,74,0.00,,,0.00,0,Wunderground v.1.15,2013-02-21 11:15:00,
2013-02-21 05:20:00,17.6,11.0,30.09,East,90,9.0,10.0,75,0.00,,,0.00,0,Wunderground v.1.15,2013-02-21 11:20:00,
2013-02-21 05:25:00,17.5,11.2,30.09,East,81,11.0,13.0,76,0.00,,,0.00,0,Wunderground v.1.15,2013-02-21 11:25:00,
2013-02-21 05:30:00,17.2,11.2,30.09,East,86,11.0,11.0,77,0.00,,,0.00,0,Wunderground v.1.15,2013-02-21 11:30:00,
2013-02-21 05:35:00,17.0,11.6,30.09,ENE,70,8.0,14.0,79,0.00,,,0.00,0,Wunderground v.1.15,2013-02-21 11:35:00,
2013-02-21 05:40:00,16.9,11.5,30.09,ENE,58,9.0,10.0,79,0.00,,,0.00,0,Wunderground v.1.15,2013-02-21 11:40:00,
2013-02-21 05:45:00,16.8,11.7,30.08,ENE,72,10.0,11.0,80,0.00,,,0.00,0,Wunderground v.1.15,2013-02-21 11:45:00,
2013-02-21 05:50:00,16.8,12.0,30.08,NE,47,3.0,7.0,81,0.00,,,0.00,0,Wunderground v.1.15,2013-02-21 11:50:00,
2013-02-21 05:55:00,16.9,12.1,30.08,NE,53,4.0,8.0,81,0.00,,,0.00,0,Wunderground v.1.15,2013-02-21 11:55:00,
2013-02-21 06:00:00,17.0,11.9,30.08,NE,49,6.0,7.0,80,0.00,,,0.00,0,Wunderground v.1.15,2013-02-21 12:00:00,
2013-02-21 06:05:00,17.1,12.0,30.08,NE,46,3.0,11.0,80,0.00,,,0.00,0,Wunderground v.1.15,2013-02-21 12:05:00,
2013-02-21 06:10:00,17.3,11.6,30.08,NE,53,7.0,10.0,78,0.00,,,0.00,0,Wunderground v.1.15,2013-02-21 12:10:00,
2013-02-21 06:15:00,17.4,11.7,30.09,NE,46,8.0,12.0,78,0.00,,,0.00,0,Wunderground v.1.15,2013-02-21 12:15:00,
2013-02-21 06:20:00,17.5,11.5,30.08,ENE,59,8.0,8.0,77,0.00,,,0.00,0,Wunderground v.1.15,2013-02-21 12:20:00,
2013-02-21 06:25:00,17.6,11.3,30.08,ENE,68,9.0,13.0,76,0.00,,,0.00,0,Wunderground v.1.15,2013-02-21 12:25:00,
2013-02-21 06:30:00,17.7,11.1,30.08,ENE,66,5.0,9.0,75,0.00,,,0.00,0,Wunderground v.1.15,2013-02-21 12:30:00,
2013-02-21 06:35:00,17.7,11.1,30.08,NE,55,5.0,10.0,75,0.00,,,0.00,0,Wunderground v.1.15,2013-02-21 12:35:00,
2013-02-21 06:40:00,17.7,11.1,30.08,ENE,73,8.0,9.0,75,0.00,,,0.00,0,Wunderground v.1.15,2013-02-21 12:40:00,
2013-02-21 06:45:00,17.7,10.8,30.08,ENE,67,5.0,12.0,74,0.00,,,0.00,0,Wunderground v.1.15,2013-02-21 12:45:00,
2013-02-21 06:50:00,17.7,10.5,30.08,ENE,62,7.0,10.0,73,0.00,,,0.00,0,Wunderground v.1.15,2013-02-21 12:50:00,
2013-02-21 06:56:00,17.7,10.5,30.08,ENE,70,5.0,11.0,73,0.00,,,0.00,0,Wunderground v.1.15,2013-02-21 12:56:00,
2013-02-21 07:01:00,17.7,10.5,30.08,ENE,68,9.0,12.0,73,0.00,,,0.00,0,Wunderground v.1.15,2013-02-21 13:01:00,
2013-02-21 07:05:00,17.7,10.5,30.08,ENE,57,7.0,12.0,73,0.00,,,0.00,0,Wunderground v.1.15,2013-02-21 13:05:00,
2013-02-21 07:10:00,17.6,10.7,30.08,ENE,57,3.0,8.0,74,0.00,,,0.00,0,Wunderground v.1.15,2013-02-21 13:10:00,
2013-02-21 07:15:00,17.5,10.9,30.08,ENE,63,5.0,11.0,75,0.00,,,0.00,0,Wunderground v.1.15,2013-02-21 13:15:00,
2013-02-21 07:21:00,17.5,11.2,30.09,ENE,74,5.0,9.0,76,0.00,,,0.00,0,Wunderground v.1.15,2013-02-21 13:21:00,
2013-02-21 07:26:00,17.5,11.2,30.09,ENE,62,7.0,10.0,76,0.00,,,0.00,0,Wunderground v.1.15,2013-02-21 13:26:00,
2013-02-21 07:31:00,17.5,11.2,30.09,ENE,61,4.0,8.0,76,0.00,,,0.00,0,Wunderground v.1.15,2013-02-21 13:31:00,
2013-02-21 07:35:00,17.5,11.2,30.09,ENE,74,5.0,10.0,76,0.00,,,0.00,0,Wunderground v.1.15,2013-02-21 13:35:00,
2013-02-21 07:41:00,17.5,11.2,30.09,ENE,63,7.0,8.0,76,0.00,,,0.00,5,Wunderground v.1.15,2013-02-21 13:41:00,
2013-02-21 07:46:00,17.5,11.2,30.09,ENE,57,10.0,11.0,76,0.00,,,0.00,11,Wunderground v.1.15,2013-02-21 13:46:00,
2013-02-21 07:51:00,17.5,11.2,30.09,ENE,66,7.0,8.0,76,0.00,,,0.00,12,Wunderground v.1.15,2013-02-21 13:51:00,
2013-02-21 07:56:00,17.5,11.2,30.09,ENE,65,5.0,9.0,76,0.00,,,0.00,18,Wunderground v.1.15,2013-02-21 13:56:00,
2013-02-21 08:01:00,17.5,11.5,30.09,NE,56,4.0,7.0,77,0.00,,,0.00,25,Wunderground v.1.15,2013-02-21 14:01:00,
2013-02-21 08:06:00,17.6,11.6,30.09,ENE,69,8.0,9.0,77,0.00,,,0.00,26,Wunderground v.1.15,2013-02-21 14:06:00,
2013-02-21 08:11:00,17.6,11.6,30.10,ENE,63,5.0,8.0,77,0.00,,,0.00,28,Wunderground v.1.15,2013-02-21 14:11:00,
2013-02-21 08:16:00,17.7,11.7,30.10,ENE,65,4.0,8.0,77,0.00,,,0.00,30,Wunderground v.1.15,2013-02-21 14:16:00,
2013-02-21 08:21:00,17.7,11.7,30.10,ENE,69,5.0,7.0,77,0.00,,,0.00,30,Wunderground v.1.15,2013-02-21 14:21:00,
2013-02-21 08:26:00,17.8,11.8,30.10,ENE,57,2.0,8.0,77,0.00,,,0.00,33,Wunderground v.1.15,2013-02-21 14:26:00,
2013-02-21 08:31:00,17.7,11.7,30.10,ENE,67,7.0,8.0,77,0.00,,,0.00,39,Wunderground v.1.15,2013-02-21 14:31:00,
2013-02-21 08:36:00,17.7,11.7,30.10,ENE,69,5.0,9.0,77,0.00,,,0.00,46,Wunderground v.1.15,2013-02-21 14:36:00,
2013-02-21 08:41:00,17.7,12.0,30.10,NE,49,4.0,6.0,78,0.00,,,0.00,49,Wunderground v.1.15,2013-02-21 14:41:00,
2013-02-21 08:46:00,17.6,12.2,30.10,NE,46,6.0,10.0,79,0.00,,,0.00,54,Wunderground v.1.15,2013-02-21 14:46:00,
2013-02-21 08:51:00,17.6,12.2,30.11,NE,51,5.0,9.0,79,0.00,,,0.00,56,Wunderground v.1.15,2013-02-21 14:51:00,
2013-02-21 08:56:00,17.5,12.4,30.10,NE,47,8.0,10.0,80,0.00,,,0.00,65,Wunderground v.1.15,2013-02-21 14:56:00,
2013-02-21 09:01:00,17.5,12.7,30.10,NE,35,7.0,7.0,81,0.00,,,0.00,76,Wunderground v.1.15,2013-02-21 15:01:00,
2013-02-21 09:06:00,17.5,12.7,30.10,ENE,59,8.0,10.0,81,0.00,,,0.00,81,Wunderground v.1.15,2013-02-21 15:06:00,
2013-02-21 09:11:00,17.5,12.7,30.09,NE,44,9.0,9.0,81,0.00,,,0.00,93,Wunderground v.1.15,2013-02-21 15:11:00,
2013-02-21 09:16:00,17.5,12.7,30.09,NE,55,4.0,10.0,81,0.00,,,0.00,93,Wunderground v.1.15,2013-02-21 15:16:00,
2013-02-21 09:21:00,17.5,12.9,30.09,NNE,32,11.0,13.0,82,0.00,,,0.00,95,Wunderground v.1.15,2013-02-21 15:21:00,
2013-02-21 09:26:00,17.6,13.0,30.10,NE,41,8.0,13.0,82,0.00,,,0.00,98,Wunderground v.1.15,2013-02-21 15:26:00,
2013-02-21 09:31:00,17.7,12.9,30.09,NE,38,6.0,8.0,81,0.00,,,0.00,98,Wunderground v.1.15,2013-02-21 15:31:00,
2013-02-21 09:36:00,17.8,13.0,30.10,NE,45,14.0,14.0,81,0.00,,,0.00,102,Wunderground v.1.15,2013-02-21 15:36:00,
2013-02-21 09:41:00,17.9,12.8,30.10,NNE,25,9.0,11.0,80,0.00,,,0.00,105,Wunderground v.1.15,2013-02-21 15:41:00,
2013-02-21 09:46:00,17.9,13.1,30.10,NNE,31,10.0,14.0,81,0.00,,,0.00,114,Wunderground v.1.15,2013-02-21 15:46:00,
2013-02-21 09:51:00,18.0,12.9,30.10,NE,38,7.0,10.0,80,0.00,,,0.00,120,Wunderground v.1.15,2013-02-21 15:51:00,
2013-02-21 09:56:00,18.0,12.9,30.10,NE,50,7.0,13.0,80,0.00,,,0.00,125,Wunderground v.1.15,2013-02-21 15:56:00,
2013-02-21 10:01:00,18.0,12.3,30.10,ENE,74,11.0,12.0,78,0.00,,,0.00,121,Wunderground v.1.15,2013-02-21 16:01:00,
2013-02-21 10:06:00,18.2,12.5,30.10,NE,34,7.0,14.0,78,0.00,,,0.00,118,Wunderground v.1.15,2013-02-21 16:06:00,
2013-02-21 10:11:00,18.2,12.5,30.10,NNE,24,8.0,14.0,78,0.00,,,0.00,114,Wunderground v.1.15,2013-02-21 16:11:00,
2013-02-21 10:16:00,18.3,12.6,30.09,NE,43,8.0,14.0,78,0.00,,,0.00,116,Wunderground v.1.15,2013-02-21 16:16:00,
2013-02-21 10:21:00,18.3,12.3,30.09,NE,47,7.0,12.0,77,0.00,,,0.00,132,Wunderground v.1.15,2013-02-21 16:21:00,
2013-02-21 10:26:00,18.4,12.1,30.08,NNE,32,12.0,17.0,76,0.00,,,0.00,141,Wunderground v.1.15,2013-02-21 16:26:00,
2013-02-21 10:31:00,18.5,12.2,30.08,NE,36,12.0,14.0,76,0.00,,,0.00,151,Wunderground v.1.15,2013-02-21 16:31:00,
2013-02-21 10:36:00,18.6,12.3,30.08,ENE,60,11.0,17.0,76,0.00,,,0.00,151,Wunderground v.1.15,2013-02-21 16:36:00,
2013-02-21 10:41:00,18.7,12.4,30.07,NE,44,17.0,18.0,76,0.00,,,0.00,149,Wunderground v.1.15,2013-02-21 16:41:00,
2013-02-21 10:46:00,18.6,12.3,30.07,NE,42,12.0,18.0,76,0.00,,,0.00,167,Wunderground v.1.15,2013-02-21 16:46:00,
2013-02-21 10:51:00,18.6,12.3,30.07,NE,46,9.0,15.0,76,0.00,,,0.00,171,Wunderground v.1.15,2013-02-21 16:51:00,
2013-02-21 10:56:00,18.6,12.3,30.07,NNE,25,9.0,16.0,76,0.00,,,0.00,176,Wunderground v.1.15,2013-02-21 16:56:00,
2013-02-21 11:01:00,18.6,12.3,30.06,NE,44,14.0,16.0,76,0.00,,,0.00,178,Wunderground v.1.15,2013-02-21 17:01:00,
2013-02-21 11:06:00,18.8,12.5,30.06,NNE,32,13.0,16.0,76,0.00,,,0.00,192,Wunderground v.1.15,2013-02-21 17:06:00,
2013-02-21 11:11:00,18.9,12.6,30.06,NE,37,12.0,16.0,76,0.00,,,0.00,192,Wunderground v.1.15,2013-02-21 17:11:00,
2013-02-21 11:16:00,19.0,12.4,30.05,NE,51,9.0,17.0,75,0.00,,,0.00,183,Wunderground v.1.15,2013-02-21 17:16:00,
2013-02-21 11:21:00,19.1,12.5,30.05,NE,38,14.0,18.0,75,0.00,,,0.00,178,Wunderground v.1.15,2013-02-21 17:21:00,
2013-02-21 11:26:00,19.1,12.2,30.05,NE,45,13.0,18.0,74,0.00,,,0.00,181,Wunderground v.1.15,2013-02-21 17:26:00,
2013-02-21 11:31:00,19.2,12.3,30.05,NE,39,15.0,16.0,74,0.00,,,0.00,183,Wunderground v.1.15,2013-02-21 17:31:00,
2013-02-21 11:36:00,19.2,12.3,30.05,NNE,15,11.0,20.0,74,0.00,,,0.00,176,Wunderground v.1.15,2013-02-21 17:36:00,
2013-02-21 11:41:00,19.3,12.4,30.04,NE,46,12.0,12.0,74,0.00,,,0.00,169,Wunderground v.1.15,2013-02-21 17:41:00,
2013-02-21 11:45:00,19.5,12.9,30.04,NE,38,11.0,15.0,75,0.00,,,0.00,162,Wunderground v.1.15,2013-02-21 17:45:00,
2013-02-21 11:50:00,19.5,12.6,30.04,NNE,32,8.0,12.0,74,0.00,,,0.00,162,Wunderground v.1.15,2013-02-21 17:50:00,
2013-02-21 11:55:00,19.6,12.3,30.04,NNE,27,12.0,15.0,73,0.00,,,0.00,171,Wunderground v.1.15,2013-02-21 17:55:00,
2013-02-21 12:00:00,19.6,12.7,30.04,ENE,59,10.0,11.0,74,0.00,,,0.00,169,Wunderground v.1.15,2013-02-21 18:00:00,
2013-02-21 12:05:00,19.7,12.8,30.04,NE,46,10.0,15.0,74,0.00,,,0.00,176,Wunderground v.1.15,2013-02-21 18:05:00,
2013-02-21 12:10:00,19.8,12.8,30.03,NNE,32,6.0,12.0,74,0.00,,,0.00,181,Wunderground v.1.15,2013-02-21 18:10:00,
2013-02-21 12:15:00,19.9,12.9,30.03,NE,48,8.0,16.0,74,0.00,,,0.00,181,Wunderground v.1.15,2013-02-21 18:15:00,
2013-02-21 12:20:00,19.9,13.3,30.02,NNE,24,10.0,13.0,75,0.00,,,0.00,176,Wunderground v.1.15,2013-02-21 18:20:00,
2013-02-21 12:25:00,19.8,13.2,30.01,NE,42,15.0,18.0,75,0.00,,,0.00,179,Wunderground v.1.15,2013-02-21 18:25:00,
2013-02-21 12:30:00,19.7,13.4,30.01,NNE,32,14.0,16.0,76,0.00,,,0.00,186,Wunderground v.1.15,2013-02-21 18:30:00,
2013-02-21 12:35:00,19.7,13.4,30.01,NE,46,11.0,16.0,76,0.00,,,0.00,190,Wunderground v.1.15,2013-02-21 18:35:00,
2013-02-21 12:40:00,19.8,13.5,30.00,NE,51,12.0,15.0,76,0.00,,,0.00,199,Wunderground v.1.15,2013-02-21 18:40:00,
2013-02-21 12:45:00,19.8,13.5,30.00,NNE,23,16.0,16.0,76,0.00,,,0.00,195,Wunderground v.1.15,2013-02-21 18:45:00,
2013-02-21 13:46:00,18.7,14.4,29.99,NE,40,16.0,16.0,83,0.00,,,0.00,137,Wunderground v.1.15,2013-02-21 19:46:00,
2013-02-21 13:51:00,18.6,14.6,29.98,NNE,32,14.0,20.0,84,0.00,,,0.00,132,Wunderground v.1.15,2013-02-21 19:51:00,
2013-02-21 13:56:00,18.5,14.5,29.98,NE,34,10.0,20.0,84,0.00,,,0.00,127,Wunderground v.1.15,2013-02-21 19:56:00,
2013-02-21 14:01:00,18.5,14.7,29.98,NNE,30,18.0,18.0,85,0.00,,,0.00,123,Wunderground v.1.15,2013-02-21 20:01:00,
2013-02-21 14:07:00,18.4,14.6,29.98,NE,54,11.0,18.0,85,0.00,,,0.00,114,Wunderground v.1.15,2013-02-21 20:07:00,
2013-02-21 14:12:00,18.4,14.9,29.98,NNE,20,10.0,13.0,86,0.00,,,0.00,116,Wunderground v.1.15,2013-02-21 20:12:00,
2013-02-21 14:17:00,18.4,14.9,29.98,NNE,32,10.0,13.0,86,0.00,,,0.00,114,Wunderground v.1.15,2013-02-21 20:17:00,
2013-02-21 14:22:00,18.3,14.8,29.98,NE,37,13.0,16.0,86,0.00,,,0.00,105,Wunderground v.1.15,2013-02-21 20:22:00,
2013-02-21 14:27:00,18.1,14.9,29.97,NE,38,15.0,17.0,87,0.00,,,0.00,104,Wunderground v.1.15,2013-02-21 20:27:00,
2013-02-21 14:32:00,18.1,14.9,29.97,NE,38,11.0,16.0,87,0.00,,,0.00,105,Wunderground v.1.15,2013-02-21 20:32:00,
2013-02-21 14:37:00,18.1,14.9,29.97,NE,36,17.0,21.0,87,0.00,,,0.00,107,Wunderground v.1.15,2013-02-21 20:37:00,
2013-02-21 14:42:00,18.1,14.9,29.96,NE,38,10.0,17.0,87,0.00,,,0.00,111,Wunderground v.1.15,2013-02-21 20:42:00,
2013-02-21 14:47:00,18.1,15.1,29.96,NE,41,13.0,17.0,88,0.00,,,0.00,114,Wunderground v.1.15,2013-02-21 20:47:00,
2013-02-21 14:52:00,18.3,15.3,29.96,NE,36,14.0,17.0,88,0.00,,,0.00,120,Wunderground v.1.15,2013-02-21 20:52:00,
2013-02-21 14:57:00,18.2,15.2,29.96,NE,50,13.0,19.0,88,0.00,,,0.00,120,Wunderground v.1.15,2013-02-21 20:57:00,
2013-02-21 15:02:00,18.2,15.2,29.96,NNE,26,13.0,17.0,88,0.00,,,0.00,121,Wunderground v.1.15,2013-02-21 21:02:00,
2013-02-21 15:07:00,18.3,15.3,29.96,NNE,19,11.0,17.0,88,0.00,,,0.00,125,Wunderground v.1.15,2013-02-21 21:07:00,
2013-02-21 15:12:00,18.3,15.3,29.96,NE,47,10.0,19.0,88,0.00,,,0.00,127,Wunderground v.1.15,2013-02-21 21:12:00,
2013-02-21 15:17:00,18.4,15.4,29.96,NNE,16,10.0,19.0,88,0.00,,,0.00,130,Wunderground v.1.15,2013-02-21 21:17:00,
2013-02-21 15:22:00,18.4,15.7,29.96,NE,47,15.0,17.0,89,0.00,,,0.00,135,Wunderground v.1.15,2013-02-21 21:22:00,
2013-02-21 15:27:00,18.5,15.8,29.95,NNE,29,17.0,18.0,89,0.00,,,0.00,142,Wunderground v.1.15,2013-02-21 21:27:00,
2013-02-21 15:32:00,18.4,15.4,29.96,NE,44,19.0,20.0,88,0.00,,,0.00,128,Wunderground v.1.15,2013-02-21 21:32:00,
2013-02-21 15:37:00,18.3,15.3,29.95,NNE,30,10.0,20.0,88,0.00,,,0.00,116,Wunderground v.1.15,2013-02-21 21:37:00,
2013-02-21 15:42:00,18.3,15.6,29.95,NNE,17,14.0,19.0,89,0.00,,,0.00,113,Wunderground v.1.15,2013-02-21 21:42:00,
2013-02-21 15:47:00,18.3,15.6,29.95,North,10,15.0,19.0,89,0.00,,,0.00,109,Wunderground v.1.15,2013-02-21 21:47:00,
2013-02-21 15:52:00,18.2,15.5,29.95,NNE,28,16.0,21.0,89,0.00,,,0.00,113,Wunderground v.1.15,2013-02-21 21:52:00,
2013-02-21 15:57:00,18.2,15.5,29.96,NE,44,14.0,21.0,89,0.00,,,0.00,102,Wunderground v.1.15,2013-02-21 21:57:00,
2013-02-21 16:02:00,18.2,15.5,29.96,NE,53,14.0,17.0,89,0.00,,,0.00,109,Wunderground v.1.15,2013-02-21 22:02:00,
2013-02-21 16:07:00,18.3,15.6,29.96,NE,48,12.0,19.0,89,0.00,,,0.00,123,Wunderground v.1.15,2013-02-21 22:07:00,
2013-02-21 16:12:00,18.3,15.6,29.96,NNE,22,10.0,14.0,89,0.00,,,0.00,128,Wunderground v.1.15,2013-02-21 22:12:00,
2013-02-21 16:17:00,18.3,15.6,29.96,NE,47,10.0,19.0,89,0.00,,,0.00,125,Wunderground v.1.15,2013-02-21 22:17:00,
2013-02-21 16:22:00,18.4,15.7,29.96,NE,40,11.0,14.0,89,0.00,,,0.00,120,Wunderground v.1.15,2013-02-21 22:22:00,
2013-02-21 16:27:00,18.4,15.7,29.95,NNE,28,11.0,16.0,89,0.00,,,0.00,123,Wunderground v.1.15,2013-02-21 22:27:00,
2013-02-21 16:32:00,18.4,15.7,29.96,NNE,17,10.0,16.0,89,0.00,,,0.00,113,Wunderground v.1.15,2013-02-21 22:32:00,
2013-02-21 16:37:00,18.4,15.7,29.95,NE,53,10.0,19.0,89,0.00,,,0.00,98,Wunderground v.1.15,2013-02-21 22:37:00,
2013-02-21 16:42:00,18.4,15.7,29.95,NE,51,12.0,16.0,89,0.00,,,0.00,88,Wunderground v.1.15,2013-02-21 22:42:00,
2013-02-21 16:47:00,18.4,15.7,29.95,NE,53,13.0,17.0,89,0.00,,,0.00,74,Wunderground v.1.15,2013-02-21 22:47:00,
2013-02-21 16:52:00,18.4,15.7,29.95,NNE,18,11.0,14.0,89,0.00,,,0.00,62,Wunderground v.1.15,2013-02-21 22:52:00,
2013-02-21 16:57:00,18.4,15.7,29.95,NNE,16,16.0,18.0,89,0.00,,,0.00,65,Wunderground v.1.15,2013-02-21 22:57:00,
2013-02-21 17:02:00,18.3,15.6,29.94,NE,40,10.0,19.0,89,0.00,,,0.00,58,Wunderground v.1.15,2013-02-21 23:02:00,
2013-02-21 17:07:00,18.3,15.6,29.94,NE,34,13.0,19.0,89,0.00,,,0.00,47,Wunderground v.1.15,2013-02-21 23:07:00,
2013-02-21 17:12:00,18.3,15.6,29.94,NNE,32,15.0,19.0,89,0.00,,,0.00,46,Wunderground v.1.15,2013-02-21 23:12:00,
2013-02-21 17:17:00,18.4,15.7,29.94,NE,40,13.0,20.0,89,0.00,,,0.00,47,Wunderground v.1.15,2013-02-21 23:17:00,
2013-02-21 17:22:00,18.4,15.7,29.94,NNE,22,13.0,16.0,89,0.00,,,0.00,42,Wunderground v.1.15,2013-02-21 23:22:00,
2013-02-21 17:27:00,18.4,15.7,29.94,NNE,30,11.0,17.0,89,0.00,,,0.00,46,Wunderground v.1.15,2013-02-21 23:27:00,
2013-02-21 17:32:00,18.3,15.6,29.94,NNE,16,11.0,18.0,89,0.00,,,0.00,35,Wunderground v.1.15,2013-02-21 23:32:00,
2013-02-21 17:37:00,18.3,15.6,29.94,NNE,16,18.0,22.0,89,0.00,,,0.00,25,Wunderground v.1.15,2013-02-21 23:37:00,
2013-02-21 17:42:00,18.2,15.5,29.94,NNE,19,14.0,17.0,89,0.00,,,0.00,19,Wunderground v.1.15,2013-02-21 23:42:00,
2013-02-21 17:47:00,18.2,15.5,29.94,North,360,10.0,17.0,89,0.00,,,0.00,16,Wunderground v.1.15,2013-02-21 23:47:00,
2013-02-21 17:52:00,18.2,15.5,29.94,NNE,24,13.0,23.0,89,0.00,,,0.00,11,Wunderground v.1.15,2013-02-21 23:52:00,
2013-02-21 17:57:00,18.2,15.5,29.93,NNE,24,14.0,23.0,89,0.00,,,0.00,7,Wunderground v.1.15,2013-02-21 23:57:00,
2013-02-21 18:02:00,18.1,15.4,29.93,NNE,21,6.0,14.0,89,0.00,,,0.00,0,Wunderground v.1.15,2013-02-22 00:02:00,
2013-02-21 18:07:00,18.2,15.5,29.93,NNE,20,14.0,19.0,89,0.00,,,0.00,0,Wunderground v.1.15,2013-02-22 00:07:00,
2013-02-21 18:12:00,18.2,15.5,29.94,NNE,17,10.0,18.0,89,0.00,,,0.00,0,Wunderground v.1.15,2013-02-22 00:12:00,
2013-02-21 18:17:00,18.2,15.5,29.93,NE,40,8.0,18.0,89,0.00,,,0.00,0,Wunderground v.1.15,2013-02-22 00:17:00,
2013-02-21 18:22:00,18.2,15.5,29.93,NE,38,7.0,16.0,89,0.00,,,0.00,0,Wunderground v.1.15,2013-02-22 00:22:00,
2013-02-21 18:27:00,18.2,15.5,29.93,NNE,17,9.0,17.0,89,0.00,,,0.00,0,Wunderground v.1.15,2013-02-22 00:27:00,
2013-02-21 18:32:00,18.1,15.4,29.93,NNE,27,6.0,14.0,89,0.00,,,0.00,0,Wunderground v.1.15,2013-02-22 00:32:00,
2013-02-21 18:37:00,18.1,15.4,29.93,North,10,8.0,18.0,89,0.00,,,0.00,0,Wunderground v.1.15,2013-02-22 00:37:00,
2013-02-21 18:42:00,18.1,15.4,29.93,NNE,15,8.0,15.0,89,0.00,,,0.00,0,Wunderground v.1.15,2013-02-22 00:42:00,
2013-02-21 18:47:00,18.1,15.4,29.93,NE,34,7.0,16.0,89,0.00,,,0.00,0,Wunderground v.1.15,2013-02-22 00:47:00,
2013-02-21 18:53:00,18.1,15.4,29.94,NNE,32,13.0,14.0,89,0.00,,,0.00,0,Wunderground v.1.15,2013-02-22 00:53:00,
2013-02-21 18:58:00,18.1,15.4,29.94,NE,46,11.0,14.0,89,0.00,,,0.00,0,Wunderground v.1.15,2013-02-22 00:58:00,
2013-02-21 19:03:00,18.1,15.7,29.94,NE,34,14.0,14.0,90,0.00,,,0.00,0,Wunderground v.1.15,2013-02-22 01:03:00,
2013-02-21 19:08:00,18.1,15.7,29.94,North,5,7.0,14.0,90,0.00,,,0.00,0,Wunderground v.1.15,2013-02-22 01:08:00,
2013-02-21 19:13:00,18.1,15.7,29.94,North,350,5.0,16.0,90,0.00,,,0.00,0,Wunderground v.1.15,2013-02-22 01:13:00,
2013-02-21 19:18:00,18.1,15.7,29.94,NNE,21,9.0,17.0,90,0.00,,,0.00,0,Wunderground v.1.15,2013-02-22 01:18:00,
2013-02-21 19:23:00,18.1,15.7,29.94,NE,49,10.0,15.0,90,0.00,,,0.00,0,Wunderground v.1.15,2013-02-22 01:23:00,
2013-02-21 19:28:00,18.1,15.7,29.94,NE,55,8.0,15.0,90,0.00,,,0.00,0,Wunderground v.1.15,2013-02-22 01:28:00,
2013-02-21 19:33:00,18.1,15.7,29.94,NNE,31,9.0,14.0,90,0.00,,,0.00,0,Wunderground v.1.15,2013-02-22 01:33:00,
2013-02-21 19:38:00,18.1,15.7,29.95,NNE,28,8.0,17.0,90,0.00,,,0.00,0,Wunderground v.1.15,2013-02-22 01:38:00,
2013-02-21 19:43:00,18.1,15.7,29.95,NE,40,6.0,11.0,90,0.00,,,0.00,0,Wunderground v.1.15,2013-02-22 01:43:00,
2013-02-21 19:48:00,18.1,15.7,29.95,NNE,30,8.0,11.0,90,0.00,,,0.00,0,Wunderground v.1.15,2013-02-22 01:48:00,
2013-02-21 19:53:00,18.1,15.7,29.95,NNE,18,7.0,15.0,90,0.00,,,0.00,0,Wunderground v.1.15,2013-02-22 01:53:00,
2013-02-21 19:58:00,18.1,15.7,29.95,North,360,9.0,15.0,90,0.00,,,0.00,0,Wunderground v.1.15,2013-02-22 01:58:00,
2013-02-21 20:03:00,18.1,15.7,29.95,NNE,27,6.0,10.0,90,0.00,,,0.00,0,Wunderground v.1.15,2013-02-22 02:03:00,
2013-02-21 20:08:00,18.1,15.7,29.95,NNE,33,9.0,12.0,90,0.00,,,0.00,0,Wunderground v.1.15,2013-02-22 02:08:00,
2013-02-21 20:13:00,18.1,15.7,29.95,NNE,17,6.0,11.0,90,0.00,,,0.00,0,Wunderground v.1.15,2013-02-22 02:13:00,
2013-02-21 20:18:00,18.1,15.7,29.95,North,10,4.0,11.0,90,0.00,,,0.00,0,Wunderground v.1.15,2013-02-22 02:18:00,
2013-02-21 20:23:00,18.1,15.7,29.95,North,5,6.0,13.0,90,0.00,,,0.00,0,Wunderground v.1.15,2013-02-22 02:23:00,
2013-02-21 20:28:00,18.1,15.7,29.95,NNE,24,7.0,13.0,90,0.00,,,0.00,0,Wunderground v.1.15,2013-02-22 02:28:00,
2013-02-21 20:33:00,18.1,15.7,29.95,NNE,22,8.0,13.0,90,0.00,,,0.00,0,Wunderground v.1.15,2013-02-22 02:33:00,
2013-02-21 20:38:00,18.1,15.7,29.95,North,355,9.0,13.0,90,0.00,,,0.00,0,Wunderground v.1.15,2013-02-22 02:38:00,
2013-02-21 20:43:00,18.1,15.7,29.95,NNE,16,9.0,13.0,90,0.00,,,0.00,0,Wunderground v.1.15,2013-02-22 02:43:00,
2013-02-21 20:48:00,18.1,15.7,29.95,NNE,14,7.0,16.0,90,0.00,,,0.00,0,Wunderground v.1.15,2013-02-22 02:48:00,
2013-02-21 20:53:00,18.1,15.7,29.95,North,360,9.0,14.0,90,0.00,,,0.00,0,Wunderground v.1.15,2013-02-22 02:53:00,
2013-02-21 20:59:00,18.0,15.6,29.95,North,355,10.0,15.0,90,0.00,,,0.00,0,Wunderground v.1.15,2013-02-22 02:59:00,
2013-02-21 21:04:00,18.0,15.6,29.95,NNW,340,11.0,16.0,90,0.00,,,0.00,0,Wunderground v.1.15,2013-02-22 03:04:00,
2013-02-21 21:09:00,18.0,15.6,29.95,North,5,7.0,16.0,90,0.00,,,0.00,0,Wunderground v.1.15,2013-02-22 03:09:00,
2013-02-21 21:14:00,18.0,15.6,29.95,North,360,8.0,14.0,90,0.00,,,0.00,0,Wunderground v.1.15,2013-02-22 03:14:00,
2013-02-21 21:19:00,18.0,15.6,29.95,North,360,8.0,14.0,90,0.00,,,0.00,0,Wunderground v.1.15,2013-02-22 03:19:00,
2013-02-21 21:24:00,18.0,15.6,29.95,North,355,10.0,15.0,90,0.00,,,0.00,0,Wunderground v.1.15,2013-02-22 03:24:00,
2013-02-21 21:29:00,18.0,15.6,29.95,NNE,15,6.0,15.0,90,0.00,,,0.00,0,Wunderground v.1.15,2013-02-22 03:29:00,
2013-02-21 21:34:00,17.9,15.5,29.95,NE,43,5.0,14.0,90,0.00,,,0.00,0,Wunderground v.1.15,2013-02-22 03:34:00,
2013-02-21 21:39:00,17.9,15.5,29.95,North,360,7.0,15.0,90,0.00,,,0.00,0,Wunderground v.1.15,2013-02-22 03:39:00,
2013-02-21 21:44:00,17.9,15.5,29.95,North,355,11.0,12.0,90,0.00,,,0.00,0,Wunderground v.1.15,2013-02-22 03:44:00,
2013-02-21 21:49:00,17.8,15.4,29.95,NNE,28,7.0,14.0,90,0.00,,,0.00,0,Wunderground v.1.15,2013-02-22 03:49:00,
2013-02-21 21:54:00,17.8,15.4,29.95,North,5,9.0,13.0,90,0.00,,,0.00,0,Wunderground v.1.15,2013-02-22 03:54:00,
2013-02-21 21:59:00,17.7,15.3,29.94,North,9,9.0,15.0,90,0.00,,,0.00,0,Wunderground v.1.15,2013-02-22 03:59:00,
2013-02-21 22:04:00,17.7,15.3,29.94,North,5,10.0,11.0,90,0.00,,,0.00,0,Wunderground v.1.15,2013-02-22 04:04:00,
2013-02-21 22:09:00,17.7,15.3,29.94,North,360,6.0,16.0,90,0.00,,,0.00,0,Wunderground v.1.15,2013-02-22 04:09:00,
2013-02-21 22:14:00,17.7,15.3,29.94,North,355,8.0,12.0,90,0.00,,,0.00,0,Wunderground v.1.15,2013-02-22 04:14:00,
2013-02-21 22:19:00,17.6,15.2,29.94,NNE,17,7.0,14.0,90,0.00,,,0.00,0,Wunderground v.1.15,2013-02-22 04:19:00,
2013-02-21 22:24:00,17.6,15.2,29.94,North,11,17.0,17.0,90,0.00,,,0.00,0,Wunderground v.1.15,2013-02-22 04:24:00,
2013-02-21 22:29:00,17.6,15.2,29.94,North,360,9.0,17.0,90,0.00,,,0.00,0,Wunderground v.1.15,2013-02-22 04:29:00,
2013-02-21 22:34:00,17.5,15.1,29.94,NNE,32,8.0,15.0,90,0.00,,,0.00,0,Wunderground v.1.15,2013-02-22 04:34:00,
2013-02-21 22:39:00,17.5,15.1,29.94,North,360,8.0,15.0,90,0.00,,,0.00,0,Wunderground v.1.15,2013-02-22 04:39:00,
2013-02-21 22:44:00,17.4,15.0,29.94,North,355,12.0,15.0,90,0.00,,,0.00,0,Wunderground v.1.15,2013-02-22 04:44:00,
2013-02-21 22:49:00,17.3,14.9,29.94,North,355,6.0,17.0,90,0.00,,,0.00,0,Wunderground v.1.15,2013-02-22 04:49:00,
2013-02-21 22:54:00,17.2,14.5,29.94,North,11,5.0,15.0,89,0.00,,,0.00,0,Wunderground v.1.15,2013-02-22 04:54:00,
2013-02-21 22:59:00,17.2,14.8,29.94,NNE,31,9.0,15.0,90,0.00,,,0.00,0,Wunderground v.1.15,2013-02-22 04:59:00,
2013-02-21 23:00:00,17.2,14.8,29.94,NNE,17,15.0,15.0,90,0.00,,,0.00,0,Wunderground v.1.15,2013-02-22 05:00:00,
2013-02-21 23:05:00,17.1,14.4,29.94,North,5,8.0,14.0,89,0.00,,,0.00,0,Wunderground v.1.15,2013-02-22 05:05:00,
2013-02-21 23:10:00,17.1,14.7,29.93,NNE,13,6.0,12.0,90,0.00,,,0.00,0,Wunderground v.1.15,2013-02-22 05:10:00,
2013-02-21 23:15:00,17.0,14.3,29.93,North,10,14.0,21.0,89,0.00,,,0.00,0,Wunderground v.1.15,2013-02-22 05:15:00,
2013-02-21 23:20:00,16.9,14.5,29.93,North,360,12.0,13.0,90,0.00,,,0.00,0,Wunderground v.1.15,2013-02-22 05:20:00,
2013-02-21 23:25:00,16.8,14.4,29.93,North,355,9.0,18.0,90,0.00,,,0.00,0,Wunderground v.1.15,2013-02-22 05:25:00,
2013-02-21 23:30:00,16.7,14.3,29.93,North,355,17.0,17.0,90,0.00,,,0.00,0,Wunderground v.1.15,2013-02-22 05:30:00,
2013-02-21 23:35:00,16.5,13.8,29.93,NNE,24,7.0,18.0,89,0.00,,,0.00,0,Wunderground v.1.15,2013-02-22 05:35:00,
2013-02-21 23:40:00,16.4,13.7,29.93,North,360,6.0,9.0,89,0.00,,,0.00,0,Wunderground v.1.15,2013-02-22 05:40:00,
2013-02-21 23:45:00,16.2,13.5,29.93,North,355,8.0,16.0,89,0.00,,,0.00,0,Wunderground v.1.15,2013-02-22 05:45:00,
2013-02-21 23:50:00,16.1,13.4,29.94,North,5,6.0,8.0,89,0.00,,,0.00,0,Wunderground v.1.15,2013-02-22 05:50:00,
2013-02-21 23:55:00,15.9,13.2,29.94,North,355,7.0,13.0,89,0.00,,,0.00,0,Wunderground v.1.15,2013-02-22 05:55:00,